Theta_e
305 299 297 301 316 319 323 323 327 326 332 329 327 335 334 339 345 351 354 357 358 362 362 361 359 359 360 359 360 359 358 358
301 298 303 305 317 322 323 325 326 329 326 332 339 337 338 343 347 349 353 356 361 362 362 361 359 358 359 358 359 359 358 358
296 299 304 307 313 322 320 322 325 329 327 328 337 341 341 342 347 348 353 357 359 362 362 361 359 358 358 359 361 360 359 358
294 297 304 307 311 315 320 324 331 328 327 327 338 338 338 340 343 350 352 356 357 362 361 360 359 359 359 360 360 360 360 360
295 297 303 306 309 309 313 319 330 331 324 327 334 337 337 338 344 350 352 354 355 356 358 360 359 359 359 360 360 360 360 360
295 297 300 305 303 309 310 317 337 336 323 323 333 336 339 339 341 347 350 351 350 354 353 354 354 359 359 360 360 360 360 358
293 297 301 302 301 307 323 331 333 335 331 333 337 337 337 337 336 341 347 348 349 348 350 351 352 353 358 358 358 359 357 358
299 300 299 303 300 304 330 329 329 330 333 336 335 337 334 332 332 335 340 345 346 346 348 350 353 349 349 351 351 351 351 350
301 305 303 302 302 304 328 324 328 326 329 332 334 334 333 333 332 331 338 343 345 344 346 348 348 347 346 345 348 348 348 345
305 308 303 300 301 304 316 327 333 331 332 333 332 332 332 333 333 332 336 340 344 345 345 344 346 347 346 345 347 344 345 344
306 305 303 301 300 301 306 325 334 332 331 332 332 333 334 335 335 335 333 337 341 343 344 342 345 345 345 345 345 344 342 342
301 303 301 301 298 305 312 333 331 330 327 328 328 331 332 334 334 334 333 336 340 341 341 342 344 343 343 344 344 342 340 341
297 298 299 300 294 303 321 330 328 329 329 332 333 334 331 333 334 334 334 335 337 338 338 339 340 339 340 342 342 341 340 340
295 297 299 300 290 310 326 327 325 327 328 328 329 332 335 335 334 333 331 333 335 339 337 337 340 337 337 338 339 340 338 337
294 297 296 295 296 316 324 325 323 324 325 326 326 329 331 336 336 335 331 332 332 334 333 335 336 335 335 337 337 338 337 336
291 294 294 299 302 319 321 323 320 320 321 322 324 327 331 332 334 333 333 334 330 330 332 333 333 333 332 333 334 335 334 336
296 298 294 301 308 316 318 318 316 316 318 320 323 327 327 329 330 330 329 329 330 333 331 335 335 332 331 330 333 336 335 334
294 298 297 303 305 313 314 313 316 317 318 320 320 322 323 323 325 325 326 327 326 327 328 332 336 336 338 338 337 337 330 330
291 298 303 304 299 305 312 313 314 315 319 321 319 318 319 320 319 321 319 321 324 323 323 325 328 333 336 337 336 332 331 330
293 291 290 296 291 300 305 306 310 312 315 317 317 317 317 316 315 317 316 317 317 318 318 321 324 325 329 329 327 328 329 329
Wind_Speed
5 4 6 5 6 11 11 5 2 2 1 3 4 5 10 10 16 16 13 12 15 21 19 19 19 18 18 17 16 16 17 16
4 8 7 5 3 3 3 6 5 5 2 3 5 11 9 18 17 16 15 12 19 21 21 20 20 19 18 17 16 15 15 16
2 7 7 4 4 5 7 3 6 6 3 3 5 15 18 18 16 18 14 12 15 21 21 20 20 19 18 17 16 15 15 15
6 6 2 5 12 10 13 10 1 6 2 3 10 17 15 15 14 13 16 11 12 19 19 19 19 19 17 16 16 15 15 14
5 1 3 8 6 8 20 12 11 11 3 3 6 10 17 15 13 14 15 10 10 11 15 17 17 17 16 15 15 14 13 13
5 3 8 5 2 12 17 12 7 5 7 7 9 12 12 12 12 12 12 9 9 9 9 9 9 16 16 16 15 14 13 12
4 7 7 5 8 9 5 13 7 7 7 12 21 16 15 12 8 8 9 10 10 10 9 8 7 10 13 15 15 14 13 13
6 4 4 8 2 7 5 11 4 5 15 22 21 17 18 15 14 13 13 14 8 8 11 11 9 7 5 7 4 4 4 5
5 9 3 6 11 6 11 1 6 21 20 21 21 16 16 16 20 21 13 10 10 8 8 9 8 6 4 3 3 3 5 4
7 11 4 3 7 8 2 8 9 24 26 22 21 18 18 17 14 16 14 13 10 9 9 6 6 7 7 5 4 3 4 5
10 8 8 4 5 9 1 3 12 17 20 22 20 17 13 12 11 11 15 14 13 11 10 7 9 7 7 7 6 6 4 5
7 12 5 5 5 3 6 12 14 12 9 9 8 9 7 9 11 12 12 13 12 13 10 9 8 8 8 7 6 5 4 6
7 7 9 8 3 3 5 14 11 11 11 14 11 9 6 13 13 14 13 13 15 14 10 9 8 7 6 7 6 7 7 7
6 5 7 12 6 3 6 19 11 12 11 12 10 9 8 7 6 8 7 12 12 11 9 8 8 6 5 5 7 7 5 4
7 8 4 5 5 4 4 17 13 11 12 12 10 10 8 9 7 7 5 10 11 10 9 8 6 5 4 6 5 5 4 5
4 3 3 4 4 10 4 16 13 10 10 10 9 6 7 9 9 9 8 5 7 6 8 7 4 4 2 3 4 4 2 3
14 9 7 9 8 9 5 9 11 8 8 9 9 6 7 8 9 8 10 10 7 8 7 6 3 3 3 4 2 3 3 4
6 2 9 9 6 6 5 2 6 13 9 7 7 7 9 9 9 11 10 9 9 7 4 4 3 2 3 3 3 4 3 5
2 3 12 12 5 2 3 5 3 4 6 6 7 8 7 10 9 9 10 9 8 7 5 3 3 2 3 5 4 3 2 3
7 6 5 3 3 3 2 1 2 4 5 6 7 7 7 8 8 8 6 7 7 8 9 9 7 5 4 2 3 2 2 1
Wind_Direction
124 145 185 222 197 225 257 34 49 255 191 131 176 108 149 129 137 131 138 142 150 150 144 142 139 137 134 133 133 132 132 132
109 225 250 230 239 209 273 336 277 298 99 87 192 151 130 134 135 131 142 145 148 148 146 145 144 141 140 140 139 139 138 137
247 243 255 226 272 173 184 233 256 244 228 76 36 104 127 135 136 141 145 142 146 149 148 148 147 146 146 147 146 144 144 144
225 223 265 242 235 217 230 202 91 138 229 57 125 129 140 136 135 141 147 139 148 149 149 148 150 149 149 151 149 149 149 149
235 16 244 224 223 209 228 187 188 156 94 55 176 149 140 137 132 143 149 142 144 149 151 151 151 150 151 153 151 150 151 150
245 135 259 238 287 253 206 206 110 161 173 177 181 149 124 124 129 143 149 147 145 146 147 143 152 155 155 155 155 153 154 156
222 156 253 295 359 322 120 132 120 181 156 143 144 136 127 123 124 148 160 164 157 144 145 145 144 160 160 162 162 163 164 164
210 225 252 290 1 299 118 122 83 94 98 126 142 147 145 154 159 170 176 176 169 154 151 149 154 153 149 167 156 155 159 167
255 272 247 285 328 308 136 98 215 143 138 143 150 161 159 169 174 177 168 175 171 163 157 156 156 145 150 143 143 153 164 176
262 261 270 254 333 327 225 205 134 151 150 149 164 170 174 175 171 167 169 177 176 174 165 165 148 163 165 160 163 171 182 178
247 286 256 357 275 239 263 149 112 139 147 167 175 175 186 175 163 160 173 178 181 177 173 167 164 167 174 176 177 181 182 185
270 257 238 218 278 262 51 122 134 146 132 131 131 174 154 173 174 171 177 180 176 184 176 173 184 183 183 183 180 181 182 198
247 242 238 135 246 109 126 99 94 84 81 86 89 96 154 189 186 177 186 170 183 179 175 186 182 184 188 197 182 191 201 198
274 146 253 136 222 144 150 116 108 105 102 96 78 81 70 78 111 153 168 179 177 181 173 182 184 187 186 205 191 195 193 186
310 198 109 109 136 152 164 120 122 118 116 107 95 62 48 52 59 64 158 175 170 176 178 187 170 169 196 186 224 203 179 185
222 226 139 95 103 142 162 133 133 126 122 114 96 72 59 48 48 51 47 76 144 144 168 179 146 163 224 203 226 237 206 237
282 243 123 147 138 156 150 139 129 132 133 120 108 96 77 55 46 43 47 53 41 125 156 140 149 153 190 213 153 97 68 66
283 336 97 132 83 87 69 355 143 146 144 127 115 93 75 65 49 48 50 52 56 55 53 105 130 166 169 157 96 105 97 59
140 44 63 101 52 54 5 52 70 90 108 115 121 107 88 79 64 54 42 35 45 45 32 0 85 82 70 84 84 74 17 8
68 62 130 63 195 291 191 215 207 157 136 118 112 98 94 88 75 77 63 49 46 34 28 18 3 86 89 99 104 79 79 107